AFL3500 VTSP-ULLI

Flight info

Callsign AFL3500
Flight time N/A
Altitude 40000
Route UPSAB1B UPSAB L515 OBMOG M770 KAKID M875 LEBIB A466 SITAX M875 AMDAR/K0907F400 M875 MILSO M161 DENUD T784 ROKUR P164 PINOK N50 GENPA GENPA1V
Aircraft A359/H-SDE2E3GHIJ3J4J5LM1ORWXY/LB1D1

Departure

Time 2026-05-08 08:35
Airport Phuket International Airport (VTSP)

Arrival

Time N/A
Airport Pulkovo Airport (ULLI)
Time Latitude Longitude Altitude Speed Heading
2026-05-08 07:01 8.10655 98.30472 33 ft 0 kts 105°
2026-05-08 08:21 8.10659 98.30457 61 ft 3 kts 105°
2026-05-08 08:21 8.10664 98.30437 60 ft 3 kts 105°
2026-05-08 08:21 8.10669 98.30417 32 ft 3 kts 105°
2026-05-08 08:22 8.10673 98.30400 30 ft 3 kts 83°
2026-05-08 08:22 8.10669 98.30388 29 ft 3 kts 18°
2026-05-08 08:22 8.10649 98.30385 29 ft 3 kts
2026-05-08 08:22 8.10630 98.30382 29 ft 1 kts 15°
2026-05-08 08:25 8.10678 98.30395 33 ft 13 kts 15°
2026-05-08 08:25 8.10781 98.30423 33 ft 17 kts 15°
2026-05-08 08:26 8.10903 98.30456 33 ft 19 kts 14°
2026-05-08 08:26 8.11017 98.30486 33 ft 14 kts 22°
2026-05-08 08:26 8.11053 98.30568 34 ft 14 kts 84°
2026-05-08 08:26 8.11064 98.30668 34 ft 15 kts 84°
2026-05-08 08:27 8.11074 98.30776 35 ft 16 kts 84°
2026-05-08 08:27 8.11085 98.30890 35 ft 17 kts 84°
2026-05-08 08:27 8.11121 98.31004 36 ft 17 kts 76°
2026-05-08 08:27 8.11134 98.31127 36 ft 18 kts 84°
2026-05-08 08:28 8.11146 98.31255 37 ft 18 kts 84°
2026-05-08 08:28 8.11158 98.31383 40 ft 18 kts 84°
2026-05-08 08:28 8.11169 98.31503 44 ft 17 kts 84°
2026-05-08 08:28 8.11179 98.31613 44 ft 15 kts 84°
2026-05-08 08:29 8.11189 98.31718 50 ft 15 kts 84°
2026-05-08 08:29 8.11198 98.31817 53 ft 14 kts 84°
2026-05-08 08:29 8.11208 98.31911 59 ft 13 kts 84°
2026-05-08 08:29 8.11216 98.32003 58 ft 13 kts 85°
2026-05-08 08:30 8.11224 98.32093 69 ft 13 kts 85°
2026-05-08 08:30 8.11232 98.32183 73 ft 14 kts 84°
2026-05-08 08:30 8.11253 98.32402 85 ft 18 kts 84°
2026-05-08 08:31 8.11266 98.32535 89 ft 20 kts 84°
2026-05-08 08:31 8.11280 98.32687 92 ft 23 kts 84°
2026-05-08 08:31 8.11296 98.32858 93 ft 25 kts 84°
2026-05-08 08:31 8.11310 98.33007 98 ft 6 kts 84°
2026-05-08 08:32 8.11315 98.33057 102 ft 8 kts 83°
2026-05-08 08:32 8.11350 98.33113 103 ft 11 kts 37°
2026-05-08 08:32 8.11432 98.33115 104 ft 13 kts 326°
2026-05-08 08:32 8.11449 98.33030 102 ft 5 kts 265°
2026-05-08 08:33 8.11449 98.33029 102 ft 0 kts 265°
2026-05-08 08:34 8.11446 98.32993 99 ft 24 kts 265°
2026-05-08 08:34 8.11407 98.32583 90 ft 93 kts 264°
2026-05-08 08:34 8.11324 98.31704 49 ft 156 kts 264°
2026-05-08 08:35 8.11216 98.30451 263 ft 190 kts 265°
2026-05-08 08:35 8.11106 98.29125 1027 ft 190 kts 265°
2026-05-08 08:35 8.10990 98.27828 1640 ft 183 kts 265°
2026-05-08 08:35 8.10869 98.26547 1974 ft 184 kts 265°
2026-05-08 08:36 8.10748 98.25258 2285 ft 185 kts 265°
2026-05-08 08:36 8.10428 98.24015 2548 ft 186 kts 247°
2026-05-08 08:36 8.09830 98.22848 2781 ft 189 kts 254°
2026-05-08 08:36 8.09804 98.21546 3050 ft 187 kts 288°
2026-05-08 08:37 8.10531 98.20479 3191 ft 191 kts 329°
2026-05-08 08:37 8.11774 98.19975 3349 ft 198 kts 347°
2026-05-08 08:37 8.13149 98.19622 3519 ft 210 kts 348°
2026-05-08 08:37 8.14612 98.19256 3692 ft 222 kts 347°
2026-05-08 08:38 8.16153 98.18860 3867 ft 236 kts 347°
2026-05-08 08:38 8.17797 98.18429 4034 ft 251 kts 347°
2026-05-08 08:38 8.19530 98.17970 4256 ft 264 kts 346°
2026-05-08 08:38 8.21330 98.17490 4598 ft 271 kts 346°
2026-05-08 08:39 8.23166 98.16999 5017 ft 274 kts 346°
2026-05-08 08:39 8.25021 98.16502 5454 ft 277 kts 346°
2026-05-08 08:39 8.26870 98.16006 5916 ft 280 kts 346°
2026-05-08 08:39 8.28764 98.15499 6356 ft 283 kts 346°
2026-05-08 08:40 8.30676 98.14987 6807 ft 285 kts 346°
2026-05-08 08:40 8.32598 98.14472 7269 ft 286 kts 346°
2026-05-08 08:40 8.34534 98.13953 7744 ft 288 kts 346°
2026-05-08 08:40 8.36481 98.13431 8229 ft 290 kts 346°
2026-05-08 08:41 8.38443 98.12905 8715 ft 292 kts 346°
2026-05-08 08:41 8.40415 98.12377 9213 ft 294 kts 346°
2026-05-08 08:41 8.42403 98.11844 9715 ft 296 kts 346°
2026-05-08 08:41 8.44403 98.11308 10129 ft 300 kts 346°
2026-05-08 08:42 8.46459 98.10758 10351 ft 312 kts 346°
2026-05-08 08:42 8.48601 98.10184 10545 ft 324 kts 346°
2026-05-08 08:42 8.50815 98.09591 10746 ft 335 kts 346°
2026-05-08 08:42 8.53110 98.08975 10940 ft 346 kts 346°
2026-05-08 08:43 8.55447 98.08336 11129 ft 357 kts 344°
2026-05-08 08:43 8.57815 98.07459 11308 ft 368 kts 338°
2026-05-08 08:43 8.60176 98.06372 11486 ft 377 kts 335°
2026-05-08 08:43 8.62556 98.05163 11654 ft 386 kts 333°
2026-05-08 08:44 8.64966 98.03897 11866 ft 393 kts 333°
2026-05-08 08:44 8.67403 98.02616 12174 ft 396 kts 333°
2026-05-08 08:44 8.69867 98.01335 12511 ft 399 kts 334°
2026-05-08 08:44 8.72349 98.00062 12851 ft 402 kts 334°
2026-05-08 08:45 8.74858 97.98788 13184 ft 404 kts 334°
2026-05-08 08:45 8.77381 97.97516 13504 ft 406 kts 334°
2026-05-08 08:45 8.79921 97.96238 13803 ft 409 kts 334°
2026-05-08 08:45 8.82477 97.94954 14073 ft 412 kts 334°
2026-05-08 08:46 8.85049 97.93661 14371 ft 413 kts 334°
2026-05-08 08:46 8.87596 97.92381 14662 ft 415 kts 334°
2026-05-08 08:46 8.90191 97.91074 14938 ft 417 kts 334°
2026-05-08 08:46 8.92801 97.89760 15198 ft 419 kts 334°
2026-05-08 08:47 8.95418 97.88442 15485 ft 421 kts 334°
2026-05-08 08:47 8.98050 97.87115 15757 ft 423 kts 334°
2026-05-08 08:47 9.00695 97.85782 16028 ft 425 kts 334°
2026-05-08 08:47 9.03350 97.84445 16324 ft 427 kts 334°
2026-05-08 08:48 9.06020 97.83098 16584 ft 429 kts 334°
2026-05-08 08:48 9.08695 97.81746 16839 ft 431 kts 334°
2026-05-08 08:48 9.11359 97.80399 17101 ft 433 kts 334°
2026-05-08 08:48 9.14065 97.79031 17368 ft 435 kts 334°
2026-05-08 08:49 9.16777 97.77660 17623 ft 437 kts 334°
2026-05-08 08:49 9.19507 97.76280 17877 ft 439 kts 334°
2026-05-08 08:49 9.22251 97.74893 18124 ft 441 kts 334°
2026-05-08 08:49 9.25000 97.73503 18343 ft 443 kts 334°
2026-05-08 08:50 9.27758 97.72109 18570 ft 444 kts 334°
2026-05-08 08:50 9.30531 97.70707 18798 ft 445 kts 334°
2026-05-08 08:50 9.33305 97.69304 19022 ft 447 kts 334°
2026-05-08 08:50 9.36091 97.67895 19246 ft 448 kts 334°
2026-05-08 08:51 9.38886 97.66481 19467 ft 449 kts 334°
2026-05-08 08:51 9.41691 97.65061 19705 ft 450 kts 334°
2026-05-08 08:51 9.44496 97.63641 19919 ft 452 kts 334°
2026-05-08 08:51 9.47279 97.62233 20131 ft 453 kts 334°
2026-05-08 08:52 9.49181 97.61269 20286 ft 454 kts 334°
2026-05-08 08:52 9.52937 97.59367 20571 ft 456 kts 334°
2026-05-08 08:52 9.55777 97.57929 20785 ft 457 kts 334°
2026-05-08 08:52 9.58626 97.56485 21014 ft 458 kts 334°
2026-05-08 08:53 9.61484 97.55038 21226 ft 459 kts 334°
2026-05-08 08:53 9.64345 97.53588 21441 ft 461 kts 334°